Kalamazoo, MI

2:16 AM EDT on May 24, 2017 (GMT -0400)
Kalamazoo-Battle Creek International

Weather History for KAZO - October, 2011

Change the Weather History Date:

Friday, October 21, 2011

  Actual Average Record
Temperature  
Mean Temperature 41 °F 49 °F  
Max Temperature 48 °F 59 °F 86 °F (1953)
Min Temperature 34 °F 40 °F 23 °F (1952)
Degree Days  
Heating Degree Days 24 16  
Month to date heating degree days 270  
Since 1 July heating degree days 419  
Cooling Degree Days 0 0  
Month to date cooling degree days 7  
Year to date cooling degree days 674  
Moisture  
Dew Point 39 °F    
Average Humidity 81    
Maximum Humidity 89    
Minimum Humidity 63    
Precipitation  
Precipitation T in 0.11 in 1.27 in (1984)
Month to date precipitation 2.76 2.26  
Year to date precipitation 29.67  
Sea Level Pressure  
Sea Level Pressure 29.97 in    
Wind  
Wind Speed 6 mph (WNW)    
Max Wind Speed 14 mph    
Max Gust Speed 17 mph    
Visibility 7 miles    
Events Rain    
T = Trace of Precipitation, MM = Missing Value Source: NWS Daily Summary

Daily Weather History Graph

Daily Weather History Graph

Search for Another Location

Airport or City:

Trip Planner

Search our weather history database for the weather conditions in past years. The results will help you decide how hot, cold, wet, or windy it might be!

Date:

Astronomy

Oct. 21, 2011 Rise Set
Actual Time 8:01 AM EDT 6:51 PM EDT
Civil Twilight 7:33 AM EDT 7:19 PM EDT
Nautical Twilight 7:00 AM EDT 7:52 PM EDT
Astronomical Twilight 6:28 AM EDT 8:24 PM EDT
Moon 1:44 AM EDT (10/21) 3:41 PM EDT (10/21)
Length of Visible Light 11h 46m
Length of Day
10h 49m
Waning Crescent, 34% of the Moon is Illuminated
Oct 21
Waning Crescent
Oct 26
New
Nov 2
First Quarter
Nov 10
Full
Nov 18
Last Quarter

Hourly Weather History & Observations

Time (EDT) Temp. Windchill Dew Point Humidity Pressure Visibility Wind Dir Wind Speed Gust Speed Precip Events Conditions
12:44 AM 44.6 °F 38.8 °F 39.2 °F 81% 29.79 in 10.0 mi WNW 11.5 mph - N/A   Overcast
12:53 AM 44.1 °F 37.7 °F 39.0 °F 82% 29.82 in 10.0 mi NW 12.7 mph - N/A   Overcast
1:28 AM 44.6 °F 38.4 °F 39.2 °F 81% 29.81 in 10.0 mi WNW 12.7 mph - N/A   Overcast
1:51 AM 44.6 °F 39.2 °F 39.2 °F 81% 29.82 in 10.0 mi WNW 10.4 mph - N/A   Overcast
1:53 AM 44.1 °F 39.0 °F 39.9 °F 85% 29.83 in 10.0 mi WNW 9.2 mph - N/A   Overcast
2:53 AM 44.1 °F 39.0 °F 39.9 °F 85% 29.85 in 10.0 mi WNW 9.2 mph - N/A   Overcast
3:53 AM 44.1 °F 40.1 °F 39.9 °F 85% 29.87 in 10.0 mi WNW 6.9 mph - N/A   Overcast
4:50 AM 44.6 °F 40.7 °F 39.2 °F 81% 29.88 in 2.0 mi WNW 6.9 mph - N/A   Overcast
4:53 AM 44.1 °F 39.5 °F 41.0 °F 89% 29.90 in 2.0 mi WNW 8.1 mph - N/A   Overcast
5:07 AM 44.6 °F 40.7 °F 41.0 °F 87% 29.88 in 2.5 mi WNW 6.9 mph - N/A   Overcast
5:14 AM 44.6 °F 40.2 °F 41.0 °F 87% 29.89 in 3.0 mi WNW 8.1 mph - N/A   Overcast
5:53 AM 44.1 °F 39.5 °F 39.9 °F 85% 29.92 in 9.0 mi West 8.1 mph - N/A   Overcast
6:15 AM 44.6 °F 41.4 °F 39.2 °F 81% 29.92 in 5.0 mi West 5.8 mph - N/A   Overcast
6:27 AM 44.6 °F 40.2 °F 41.0 °F 87% 29.92 in 6.0 mi WNW 8.1 mph - N/A   Overcast
6:53 AM 44.1 °F 40.8 °F 41.0 °F 89% 29.95 in 6.0 mi WNW 5.8 mph - N/A   Overcast
7:10 AM 44.6 °F 40.2 °F 41.0 °F 87% 29.93 in 4.0 mi WNW 8.1 mph - N/A   Overcast
7:21 AM 44.6 °F 40.2 °F 41.0 °F 87% 29.94 in 4.0 mi WNW 8.1 mph - N/A   Overcast
7:53 AM 44.1 °F 40.1 °F 39.9 °F 85% 29.97 in 5.0 mi WNW 6.9 mph - N/A   Overcast
8:53 AM 44.1 °F 42.5 °F 41.0 °F 89% 30.00 in 6.0 mi West 3.5 mph - N/A   Overcast
9:53 AM 45.0 °F 41.8 °F 41.0 °F 86% 30.02 in 3.0 mi WNW 5.8 mph - 0.00 in Rain Light Rain
10:53 AM 44.6 °F 42.2 °F 41.0 °F 87% 30.02 in 5.0 mi NW 4.6 mph - N/A   Overcast
11:53 AM 46.0 °F 43.9 °F 41.0 °F 83% 30.05 in 7.0 mi NW 4.6 mph - N/A   Overcast
12:04 PM 46.4 °F 43.5 °F 41.0 °F 81% 30.03 in 8.0 mi WNW 5.8 mph - N/A   Overcast
12:53 PM 46.9 °F - 39.9 °F 77% 30.05 in 8.0 mi WNW 5.8 mph - N/A   Overcast
1:53 PM 46.9 °F - 39.0 °F 74% 30.04 in 10.0 mi West 8.1 mph - N/A   Overcast
2:53 PM 48.0 °F - 37.9 °F 68% 30.05 in 10.0 mi WNW 10.4 mph - N/A   Overcast
3:53 PM 48.0 °F - 37.0 °F 66% 30.06 in 10.0 mi WNW 9.2 mph - N/A   Overcast
4:53 PM 48.0 °F - 36.0 °F 63% 30.07 in 9.0 mi West 9.2 mph - N/A   Overcast
5:53 PM 46.9 °F - 35.1 °F 63% 30.08 in 10.0 mi West 9.2 mph - N/A   Overcast
6:53 PM 46.0 °F 41.9 °F 35.1 °F 66% 30.10 in 10.0 mi WNW 8.1 mph - N/A   Overcast
7:53 PM 46.0 °F 42.5 °F 35.1 °F 66% 30.11 in 10.0 mi WNW 6.9 mph - N/A   Overcast
8:30 PM 42.8 °F - 35.6 °F 76% 30.09 in 10.0 mi Calm Calm - N/A   Scattered Clouds
8:53 PM 43.0 °F - 35.1 °F 74% 30.11 in 10.0 mi Calm Calm - N/A   Clear
9:53 PM 37.0 °F - 34.0 °F 89% 30.11 in 9.0 mi Calm Calm - N/A   Clear
10:53 PM 36.0 °F - 33.1 °F 89% 30.11 in 5.0 mi Calm Calm - N/A   Clear
11:53 PM 35.1 °F - 32.0 °F 89% 30.10 in 4.0 mi Calm Calm - N/A   Clear